Weather History for KDGW - May, 2013

Change the Weather History Date:

Saturday, May 4, 2013

  Actual Average Record
Temperature  
Mean Temperature 47 °F 49 °F  
Max Temperature 59 °F 64 °F 86 °F (2000)
Min Temperature 34 °F 34 °F 28 °F (2008)
Degree Days  
Heating Degree Days 18 16  
Month to date heating degree days 101 66  
Since 1 July heating degree days 6867 7023  
Cooling Degree Days 0 0  
Month to date cooling degree days 0 0  
Year to date cooling degree days 0 0  
Moisture  
Dew Point 22 °F    
Average Humidity 42    
Maximum Humidity 61    
Minimum Humidity 23    
Precipitation  
Precipitation 0.00 in 0.08 in 0.19 in (2006)
Month to date precipitation 0.15 0.33  
Year to date precipitation 2.97 3.48  
Sea Level Pressure  
Sea Level Pressure 30.14 in    
Wind  
Wind Speed 10 mph (ESE)    
Max Wind Speed 18 mph    
Max Gust Speed 24 mph    
Visibility 10 miles    
Events      
T = Trace of Precipitation, MM = Missing Value Source: NWS Daily Summary

Daily Weather History Graph

Daily Weather History Graph

Search for Another Location

Airport or City:

Trip Planner

Search our weather history database for the weather conditions in past years. The results will help you decide how hot, cold, wet, or windy it might be!

Date:

Astronomy

May. 04, 2013 Rise Set
Actual Time 5:51 AM MDT 8:05 PM MDT
Civil Twilight 5:20 AM MDT 8:37 PM MDT
Nautical Twilight 4:41 AM MDT 9:15 PM MDT
Astronomical Twilight 3:58 AM MDT 9:58 PM MDT
Moon 2:58 AM MDT (5/4) 2:59 PM MDT (5/4)
Length of Visible Light 15h 17m
Length of Day
14h 14m
Waning Crescent, 26% of the Moon is Illuminated
May 4
Waning Crescent
May 9
New
May 17
First Quarter
May 24
Full
May 31
Last Quarter

Hourly Weather History & Observations

Time (MDT) Temp. Windchill Dew Point Humidity Pressure Visibility Wind Dir Wind Speed Gust Speed Precip Events Conditions
12:53 AM 44.1 °F 38.1 °F 24.1 °F 45% 30.06 in 10.0 mi East 11.5 mph - N/A   Mostly Cloudy
1:53 AM 42.1 °F 35.2 °F 24.1 °F 49% 30.06 in 10.0 mi ESE 12.7 mph - N/A   Overcast
2:53 AM 39.9 °F 34.5 °F 24.1 °F 53% 30.06 in 10.0 mi ESE 8.1 mph - N/A   Overcast
3:53 AM 39.0 °F 31.0 °F 21.9 °F 50% 30.06 in 10.0 mi ESE 13.8 mph - N/A   Mostly Cloudy
4:53 AM 34.0 °F 26.6 °F 21.9 °F 61% 30.10 in 10.0 mi East 9.2 mph - N/A   Clear
5:53 AM 36.0 °F 29.0 °F 23.0 °F 59% 30.11 in 10.0 mi East 9.2 mph - N/A   Mostly Cloudy
6:53 AM 37.0 °F 31.6 °F 24.1 °F 59% 30.14 in 10.0 mi East 6.9 mph - N/A   Overcast
7:53 AM 39.0 °F 34.8 °F 23.0 °F 53% 30.17 in 10.0 mi ESE 5.8 mph - N/A   Overcast
8:53 AM 43.0 °F 38.8 °F 23.0 °F 45% 30.18 in 10.0 mi SSE 6.9 mph - N/A   Overcast
9:53 AM 48.0 °F - 19.9 °F 33% 30.17 in 10.0 mi SE 10.4 mph 18.4 mph N/A   Overcast
10:53 AM 50.0 °F - 21.9 °F 33% 30.17 in 10.0 mi SE 12.7 mph 18.4 mph N/A   Mostly Cloudy
11:53 AM 53.1 °F - 19.9 °F 27% 30.16 in 10.0 mi ESE 6.9 mph - N/A   Clear
12:53 PM 55.0 °F - 19.9 °F 25% 30.14 in 10.0 mi East 9.2 mph 21.9 mph N/A   Clear
1:53 PM 57.0 °F - 19.9 °F 24% 30.14 in 10.0 mi East 10.4 mph 23.0 mph N/A   Clear
2:53 PM 57.9 °F - 21.0 °F 24% 30.13 in 10.0 mi ENE 15.0 mph 21.9 mph N/A   Clear
3:53 PM 57.9 °F - 21.9 °F 25% 30.12 in 10.0 mi ENE 11.5 mph 18.4 mph N/A   Clear
4:53 PM 57.9 °F - 21.9 °F 25% 30.14 in 10.0 mi East 10.4 mph 18.4 mph N/A   Partly Cloudy
5:53 PM 55.9 °F - 23.0 °F 28% 30.15 in 10.0 mi East 13.8 mph 19.6 mph N/A   Partly Cloudy
6:53 PM 54.0 °F - 21.9 °F 29% 30.15 in 10.0 mi East 13.8 mph - N/A   Clear
7:53 PM 48.9 °F - 21.9 °F 35% 30.17 in 10.0 mi East 10.4 mph - N/A   Clear
8:53 PM 44.1 °F 39.0 °F 21.9 °F 42% 30.19 in 10.0 mi ESE 9.2 mph - N/A   Clear
9:53 PM 39.9 °F 35.1 °F 21.9 °F 49% 30.22 in 10.0 mi ESE 6.9 mph - N/A   Partly Cloudy
10:53 PM 39.0 °F 34.0 °F 21.0 °F 49% 30.22 in 10.0 mi SE 6.9 mph - N/A   Scattered Clouds
11:53 PM 35.1 °F 28.6 °F 21.0 °F 57% 30.23 in 10.0 mi ESE 8.1 mph - N/A   Clear